Location: Hradec Kralove
(50.2170°N, 15.8330°E)
Time: 01:14:19
(UTC+02:00)

ISS - Visible Passes

Search period start: 19 May 2024 00:00
Search period end: 29 May 2024 00:00
Orbit: 410 x 414 km, 51.6° (Epoch: 18 May)

Date Brightness Start Highest point End Pass type
(mag) Time Alt. Az. Time Alt. Az. Time Alt. Az.
19 May -3.8 22:38:19 10° WNW 22:41:40 89° NNE 22:43:46 21° ESE visible
20 May -1.8 00:15:12 10° W 00:16:34 19° WSW 00:16:34 19° WSW visible
20 May -3.6 21:48:25 10° WNW 21:51:46 75° N 21:55:05 10° E visible
20 May -3.3 23:25:09 10° W 23:28:19 40° SSW 23:28:20 40° SSW visible
21 May -3.7 22:35:09 10° WNW 22:38:26 58° SSW 22:40:04 26° SE visible
22 May -1.1 00:12:44 10° WSW 00:12:51 10° WSW 00:12:51 10° WSW visible
22 May -3.8 21:45:09 10° WNW 21:48:29 79° SSW 21:51:47 10° ESE visible
22 May -2.1 23:22:10 10° W 23:24:35 21° SW 23:24:35 21° SW visible
23 May -2.7 22:31:53 10° W 22:34:53 31° SSW 22:36:17 22° SSE visible
24 May -3.2 21:41:41 10° W 21:44:54 46° SSW 21:47:58 11° SE visible
24 May -1.2 23:20:16 10° SW 23:20:45 10° SW 23:20:45 10° SW visible
25 May -1.7 22:28:48 10° W 22:30:59 16° SW 22:32:26 13° S visible
26 May -2.2 21:38:13 10° W 21:40:59 25° SW 21:43:46 10° SSE visible
28 May -1.3 21:35:14 10° WSW 21:36:44 13° SW 21:38:14 10° SSW visible
